• In Uzbekistan
  • List of Countries
  • For 7 days
  • Water Temperature
  • Satellite Maps
  • Weather Map
  • Weather Widgets
  • user-avatar
    Login

    Hourly Weather Wien

    Today, 6 December, Tuesday

    Time Temperature Precipitation Wind Pressure Humidity
    00:00 -2°C° 0 mm 1 mps 752 mmHg 78%
    01:00 -2°C° 0 mm 1 mps 752 mmHg 79%
    02:00 -2°C° 0 mm 1 mps 751 mmHg 78%
    03:00 -2°C° 0 mm 1 mps 751 mmHg 77%
    04:00 -2°C° 0 mm 1 mps 751 mmHg 76%
    05:00 -2°C° 0 mm 1 mps 751 mmHg 73%
    06:00 -2°C° 0 mm 1 mps 751 mmHg 71%
    07:00 -4°C° 0 mm 2 mps 752 mmHg 69%
    08:00 -3°C° 0 mm 2 mps 752 mmHg 62%
    09:00 -1°C° 0 mm 2 mps 752 mmHg 56%
    10:00 0°C° 0 mm 3 mps 753 mmHg 49%
    11:00 +1°C° 0 mm 3 mps 753 mmHg 47%
    12:00 +2°C° 0 mm 3 mps 753 mmHg 44%
    13:00 +3°C° 0 mm 4 mps 753 mmHg 41%
    14:00 +2°C° 0 mm 3 mps 753 mmHg 47%
    15:00 0°C° 0 mm 3 mps 753 mmHg 53%
    16:00 -1°C° 0 mm 3 mps 753 mmHg 58%
    17:00 -2°C° 0 mm 3 mps 754 mmHg 62%
    18:00 -2°C° 0 mm 3 mps 754 mmHg 65%
    19:00 -4°C° 0 mm 3 mps 755 mmHg 68%
    20:00 -4°C° 0 mm 3 mps 755 mmHg 71%
    21:00 -3°C° 0 mm 2 mps 755 mmHg 73%
    22:00 -3°C° 0 mm 2 mps 756 mmHg 76%
    23:00 -3°C° 0 mm 2 mps 756 mmHg 77%

    Tomorrow, 7 December, Wednesday

    Time Temperature Precipitation Wind Pressure Humidity
    00:00 -3°C° 0 mm 2 mps 756 mmHg 78%
    01:00 -3°C° 0 mm 2 mps 756 mmHg 79%
    02:00 -4°C° 0 mm 2 mps 756 mmHg 81%
    03:00 -2°C° 0 mm 1 mps 756 mmHg 83%
    04:00 -2°C° 0 mm 1 mps 756 mmHg 85%
    05:00 -2°C° 0 mm 1 mps 757 mmHg 86%
    06:00 -2°C° 0 mm 1 mps 757 mmHg 87%
    07:00 -2°C° 0 mm 1 mps 757 mmHg 88%
    08:00 -1°C° 0 mm 1 mps 758 mmHg 82%
    09:00 0°C° 0 mm 1 mps 758 mmHg 76%
    10:00 +2°C° 0 mm 1 mps 758 mmHg 71%
    11:00 +2°C° 0 mm 1 mps 758 mmHg 69%
    12:00 +2°C° 0 mm 2 mps 758 mmHg 67%
    13:00 +3°C° 0 mm 2 mps 758 mmHg 65%
    14:00 +2°C° 0 mm 2 mps 758 mmHg 72%
    15:00 -1°C° 0 mm 2 mps 758 mmHg 79%
    16:00 -2°C° 0 mm 2 mps 757 mmHg 87%
    17:00 -2°C° 0 mm 2 mps 758 mmHg 87%
    18:00 -3°C° 0 mm 2 mps 758 mmHg 88%
    19:00 -3°C° 0 mm 2 mps 758 mmHg 88%
    20:00 -3°C° 0 mm 2 mps 758 mmHg 88%
    21:00 -3°C° 0 mm 2 mps 758 mmHg 87%
    22:00 -3°C° 0 mm 2 mps 758 mmHg 87%
    23:00 -3°C° 0 mm 2 mps 758 mmHg 87%

    Day after tomorrow, 8 December, Thursday

    Time Temperature Precipitation Wind Pressure Humidity
    00:00 -3°C° 0 mm 2 mps 758 mmHg 88%
    01:00 -4°C° 0 mm 2 mps 757 mmHg 88%
    02:00 -4°C° 0 mm 2 mps 757 mmHg 88%
    03:00 -2°C° 0 mm 1 mps 757 mmHg 88%
    04:00 -2°C° 0 mm 1 mps 757 mmHg 88%
    05:00 -2°C° 0 mm 1 mps 757 mmHg 88%
    06:00 -2°C° 0 mm 1 mps 757 mmHg 89%
    07:00 -2°C° 0 mm 1 mps 756 mmHg 89%
    08:00 -1°C° 0 mm 1 mps 756 mmHg 83%
    09:00 0°C° 0 mm 1 mps 756 mmHg 78%
    10:00 +1°C° 0 mm 1 mps 756 mmHg 72%
    11:00 +2°C° 0 mm 1 mps 756 mmHg 68%
    12:00 +3°C° 0 mm 1 mps 756 mmHg 65%
    13:00 +4°C° 0 mm 1 mps 756 mmHg 61%
    14:00 +3°C° 0 mm 1 mps 755 mmHg 69%
    15:00 +1°C° 0 mm 1 mps 755 mmHg 77%
    16:00 0°C° 0 mm 1 mps 755 mmHg 85%
    17:00 0°C° 0 mm 1 mps 755 mmHg 84%
    18:00 0°C° 0 mm 1 mps 755 mmHg 83%
    19:00 0°C° 0 mm 1 mps 755 mmHg 81%
    20:00 0°C° 0 mm 1 mps 754 mmHg 80%
    21:00 0°C° 0 mm 1 mps 754 mmHg 79%
    22:00 0°C° 0 mm 1 mps 754 mmHg 78%
    23:00 0°C° 0 mm 1 mps 754 mmHg 75%

    9 December, Friday

    Time Temperature Precipitation Wind Pressure Humidity
    00:00 +1°C° 0 mm 1 mps 754 mmHg 72%
    01:00 +1°C° 0 mm 1 mps 754 mmHg 69%
    02:00 +1°C° 0 mm 1 mps 754 mmHg 67%
    03:00 +2°C° 0 mm 1 mps 753 mmHg 65%
    04:00 +2°C° 0 mm 1 mps 753 mmHg 63%
    05:00 +1°C° 0 mm 2 mps 753 mmHg 62%
    06:00 +1°C° 0 mm 2 mps 753 mmHg 60%
    07:00 +1°C° 0 mm 2 mps 753 mmHg 59%
    08:00 +2°C° 0 mm 2 mps 754 mmHg 54%
    09:00 +4°C° 0 mm 2 mps 754 mmHg 50%
    10:00 +4°C° 0 mm 3 mps 754 mmHg 45%
    11:00 +5°C° 0 mm 3 mps 754 mmHg 46%
    12:00 +7°C° 0 mm 3 mps 754 mmHg 46%
    13:00 +8°C° 0 mm 3 mps 753 mmHg 47%
    14:00 +5°C° 0 mm 3 mps 753 mmHg 53%
    15:00 +4°C° 0 mm 3 mps 753 mmHg 59%
    16:00 +2°C° 0 mm 3 mps 753 mmHg 65%
    17:00 +3°C° 0 mm 2 mps 753 mmHg 67%
    18:00 +3°C° 0 mm 2 mps 753 mmHg 68%
    19:00 +2°C° 0 mm 2 mps 753 mmHg 70%
    20:00 +2°C° 0 mm 2 mps 753 mmHg 70%
    21:00 +2°C° 0 mm 2 mps 753 mmHg 71%
    22:00 +2°C° 0 mm 2 mps 753 mmHg 72%
    23:00 +2°C° 0 mm 1 mps 753 mmHg 73%

    10 December, Saturday

    Time Temperature Precipitation Wind Pressure Humidity
    00:00 +2°C° 0 mm 1 mps 752 mmHg 74%
    01:00 +2°C° 0 mm 1 mps 752 mmHg 75%
    02:00 +2°C° 0 mm 1 mps 752 mmHg 75%
    03:00 +2°C° 0 mm 1 mps 751 mmHg 74%
    04:00 +2°C° 0 mm 1 mps 751 mmHg 74%
    05:00 +2°C° 0 mm 1 mps 751 mmHg 74%
    06:00 +2°C° 0 mm 1 mps 751 mmHg 74%
    07:00 +2°C° 0 mm 1 mps 751 mmHg 73%
    08:00 +3°C° 0 mm 1 mps 751 mmHg 66%
    09:00 +5°C° 0 mm 1 mps 751 mmHg 58%
    10:00 +6°C° 0 mm 1 mps 751 mmHg 50%
    11:00 +7°C° 0 mm 1 mps 751 mmHg 50%
    12:00 +8°C° 0 mm 1 mps 750 mmHg 49%
    13:00 +9°C° 0 mm 1 mps 750 mmHg 48%
    14:00 +7°C° 0 mm 1 mps 750 mmHg 55%
    15:00 +5°C° 0 mm 1 mps 749 mmHg 62%
    16:00 +3°C° 0 mm 1 mps 749 mmHg 69%
    17:00 +3°C° 0 mm 1 mps 749 mmHg 69%
    18:00 +2°C° 0 mm 1 mps 749 mmHg 69%
    19:00 +2°C° 0 mm 1 mps 749 mmHg 68%
    20:00 +2°C° 0 mm 1 mps 749 mmHg 68%
    21:00 +2°C° 0 mm 1 mps 748 mmHg 67%
    22:00 +2°C° 0 mm 1 mps 748 mmHg 67%
    23:00 +2°C° 0 mm 1 mps 748 mmHg 67%

    11 December, Sunday

    Time Temperature Precipitation Wind Pressure Humidity
    00:00 +2°C° 0 mm 1 mps 748 mmHg 67%
    01:00 +2°C° 0 mm 1 mps 747 mmHg 67%
    02:00 +2°C° 0 mm 1 mps 747 mmHg 67%
    03:00 +2°C° 0 mm 1 mps 746 mmHg 68%
    04:00 +2°C° 0 mm 1 mps 746 mmHg 68%
    05:00 +2°C° 0 mm 1 mps 746 mmHg 67%
    06:00 +2°C° 0 mm 1 mps 745 mmHg 67%
    07:00 +2°C° 0 mm 1 mps 745 mmHg 66%
    08:00 +3°C° 0 mm 1 mps 745 mmHg 59%
    09:00 +5°C° 0 mm 1 mps 745 mmHg 53%
    10:00 +7°C° 0 mm 1 mps 745 mmHg 46%
    11:00 +7°C° 0 mm 1 mps 744 mmHg 46%
    12:00 +7°C° 0 mm 2 mps 744 mmHg 46%
    13:00 +8°C° 0 mm 2 mps 743 mmHg 46%
    14:00 +7°C° 0 mm 2 mps 742 mmHg 53%
    15:00 +5°C° 0 mm 2 mps 742 mmHg 60%
    16:00 +4°C° 0 mm 2 mps 742 mmHg 67%
    17:00 +3°C° 0 mm 3 mps 741 mmHg 69%
    18:00 +3°C° 0 mm 3 mps 741 mmHg 71%
    19:00 +3°C° 0 mm 3 mps 741 mmHg 72%
    20:00 +4°C° 0.1 mm 4 mps 741 mmHg 77%
    21:00 +5°C° 0.1 mm 4 mps 742 mmHg 81%
    22:00 +5°C° 0.1 mm 5 mps 742 mmHg 85%
    23:00 +5°C° 0 mm 5 mps 742 mmHg 86%
    Show more